Погода в Черском

Россия / Республика Саха (Якутия)     68°45′04″N   161°19′59″E
темп.,
°C
ветер,
м/с
пор.,
м/с
влажн.,
%
обл.,
%
осадки,
мм/ч
давл.,
гПа
погр.,
м
1 марта, пн
пн123:00−31ссв12920 0.0 102819
02:00−29с23830 0.0 102619
05:00−29с23800 0.0 102419
08:00−30с11810 0.0 102219
11:00−26ссз11790 0.0 102119
14:00−25ссз12810 0.0 101922
17:00−28ссз22810 0.0 101819
20:00−29ссз22830 0.0 101819
2 марта, вт
вт223:00−31сз22870 0.0 101819
02:00−32з22920 0.0 101919
05:00−34зюз23980 0.0 101919
08:00−35юз239912 0.0 102219
11:00−34юз349612 0.0 1022121
14:00−32юз239426 0.0 1024203
17:00−35ююз239715 0.0 102619
20:00−37ююз22973 0.0 102819
3 марта, ср
ср323:00−38ю22974 0.0 102919
02:00−38ююз11972 0.0 103019
05:00−38св11977 0.0 103019
08:00−37в119640 0.0 103019
11:00−33св019149 0.0 102831
14:00−31ссв339271 0.0 1025103
17:00−32с239382 0.0 102222
20:00−32ссв2293100 0.0 102019
4 марта, чт
чт423:00−32ссв229269 0.0 101519
02:00−28с3388100 0.0 101035
05:00−24с3383100 0.0 100446
08:00−20ссв4585100 0.1 99895
11:00−13в71292100 0.6 991715
14:00−11вюв6993100 1.2 986765
17:00−12всв4795100 2.5 983296
20:00−14всв2395100 0.6 98135
5 марта, пт
пт523:00−14ссв3396100 1.5 98046
02:00−16св2296100 0.4 97924
05:00−17св1197100 0.4 97920
08:00−17зсз1296100 0.1 98020
11:00−15юз1194100 0.2 98164
14:00−16юз3495100 0.1 982188
17:00−18ююз2398100 0.4 98477
20:00−19юв2398100 0.4 98641